Terminal Aerodrome Forecast
Issued by NWS

Home | Current Version | Previous Version | Text Only | Print | Product List | Glossary On
Versions: 1 2 3 4 5 6 7 8 9 10 11 12 13 14 15 16 17
622
FTUS42 KTAE 081136
TAFABY
TAF
KABY 081136Z 0812/0912 32008KT P6SM OVC017
     FM081400 33010G18KT P6SM FEW030 SCT100
     FM082300 34007KT P6SM SCT050 BKN100=

USA.gov is the U.S. government's official web portal to all federal, state and local government web resources and services.